KZ-1A R/B

Last updated on Tue Oct 08 2024 00:02:04 GMT+0000 (Coordinated Universal Time)

1 61199U 24170E 24281.55587962 .00205376 14323-4 18494-2 0 9992 2 61199 44.7455 11.1193 0493796 206.4354 151.0528 14.86972561 2558

Satellite not in orbit